Tracking 19903 objects as of 16-Oct-2019
HD Live streaming from Space Station
objects crossing your sky now

DELTA 1 DEB

Track DELTA 1 DEB now!
10-day predictions


NORAD ID: 37671
Int'l Code: 1978-026KJ
Perigee: 797.1 km
Apogee: 840.5 km
Inclination: 98.8 °
Period: 101.1 minutes
Semi major axis: 7189 km
RCS: 0.0135 m2 (small)
Launch date: March 5, 1978
Source: United States (US)
Launch site: AIR FORCE WESTERN TEST RANGE (AFWTR)

Note: This is SATELLITE DEBRIS
aabbcc
Your satellite tracking list
Your tracking list is empty




NASA's NSSDC Master Catalog

Two Line Element Set (TLE):
1 37671U 78026KJ  19288.74637215  .00000169  00000-0  92778-4 0  9993
2 37671  98.7832 267.1440 0030136  15.4251 344.7839 14.24060428877605
Source of the keplerian elements: AFSPC